Houlton, ME

11:47 AM EST on January 16, 2017 (GMT -0500)
Houlton International

Weather History for KHUL - May, 2013

Change the Weather History Date:

Tuesday, May 28, 2013

  Actual Average Record
Temperature  
Mean Temperature 49 °F 55 °F  
Max Temperature 69 °F 68 °F 92 °F (1978)
Min Temperature 29 °F 42 °F 26 °F (1977)
Degree Days  
Heating Degree Days 16 11  
Month to date heating degree days 364 405  
Since 1 July heating degree days 8341 8978  
Cooling Degree Days 0 0  
Month to date cooling degree days 0 0  
Year to date cooling degree days 0 0  
Moisture  
Dew Point 35 °F    
Average Humidity 63    
Maximum Humidity 100    
Minimum Humidity 26    
Precipitation  
Precipitation 0.00 in 0.11 in 0.50 in (2015)
Month to date precipitation 5.20 2.98  
Year to date precipitation 10.72 14.31  
Sea Level Pressure  
Sea Level Pressure 30.19 in    
Wind  
Wind Speed 3 mph (NE)    
Max Wind Speed 12 mph    
Max Gust Speed 18 mph    
Visibility 10 miles    
Events      
T = Trace of Precipitation, MM = Missing Value Source: NWS Daily Summary

Daily Weather History Graph

Daily Weather History Graph

Search for Another Location

Airport or City:

Trip Planner

Search our weather history database for the weather conditions in past years. The results will help you decide how hot, cold, wet, or windy it might be!

Date:

Astronomy

May. 28, 2013 Rise Set
Actual Time 4:45 AM EDT 8:11 PM EDT
Civil Twilight 4:08 AM EDT 8:48 PM EDT
Nautical Twilight 3:20 AM EDT 9:37 PM EDT
Astronomical Twilight 2:17 AM EDT 10:40 PM EDT
Moon 11:24 PM EDT (5/28) 8:35 AM EDT (5/28)
Length of Visible Light 16h 39m
Length of Day
15h 25m
Waning Gibbous, 83% of the Moon is Illuminated
May 28
Waning Gibbous
May 31
Last Quarter
Jun 8
New
Jun 16
First Quarter
Jun 23
Full

Hourly Weather History & Observations

Time (EDT) Temp. Dew Point Humidity Pressure Visibility Wind Dir Wind Speed Gust Speed Precip Events Conditions
12:53 AM 36.0 °F 35.1 °F 97% 30.14 in 10.0 mi Calm Calm - N/A   Clear
1:53 AM 34.0 °F 33.1 °F 96% 30.16 in 10.0 mi Calm Calm - N/A   Clear
2:53 AM 33.1 °F 32.0 °F 96% 30.17 in 10.0 mi Calm Calm - N/A   Clear
3:53 AM 32.0 °F 30.9 °F 96% 30.17 in 10.0 mi Calm Calm - N/A   Clear
4:53 AM 30.0 °F 28.0 °F 92% 30.19 in 10.0 mi Calm Calm - N/A   Clear
5:53 AM 33.1 °F 32.0 °F 96% 30.20 in 9.0 mi Calm Calm - N/A   Clear
6:53 AM 43.0 °F 37.9 °F 82% 30.22 in 10.0 mi Calm Calm - N/A   Clear
7:53 AM 48.9 °F 37.9 °F 66% 30.23 in 10.0 mi NNE 5.8 mph - N/A   Clear
8:53 AM 52.0 °F 36.0 °F 54% 30.24 in 10.0 mi North 5.8 mph - N/A   Clear
9:53 AM 55.9 °F 35.1 °F 45% 30.23 in 10.0 mi NW 4.6 mph - N/A   Clear
10:53 AM 57.9 °F 34.0 °F 41% 30.23 in 10.0 mi Calm Calm - N/A   Clear
11:53 AM 60.1 °F 36.0 °F 41% 30.22 in 10.0 mi Variable 3.5 mph - N/A   Clear
12:53 PM 62.1 °F 36.0 °F 38% 30.20 in 10.0 mi Calm Calm - N/A   Clear
1:53 PM 64.9 °F 36.0 °F 34% 30.19 in 10.0 mi Variable 4.6 mph - N/A   Partly Cloudy
2:53 PM 66.9 °F 34.0 °F 30% 30.18 in 10.0 mi NW 5.8 mph - N/A   Clear
3:53 PM 68.0 °F 34.0 °F 28% 30.18 in 10.0 mi NE 3.5 mph - N/A   Clear
4:53 PM 69.1 °F 34.0 °F 27% 30.16 in 10.0 mi Calm Calm - N/A   Clear
5:53 PM 68.0 °F 32.0 °F 26% 30.16 in 10.0 mi SSW 4.6 mph - N/A   Clear
6:53 PM 64.9 °F 37.9 °F 37% 30.16 in 10.0 mi ENE 5.8 mph - N/A   Clear
7:53 PM 62.1 °F 37.9 °F 41% 30.16 in 10.0 mi East 8.1 mph - N/A   Clear
8:53 PM 60.1 °F 37.9 °F 44% 30.18 in 10.0 mi ESE 6.9 mph - N/A   Clear
9:53 PM 59.0 °F 36.0 °F 42% 30.19 in 10.0 mi ESE 10.4 mph - N/A   Clear
10:53 PM 52.0 °F 39.0 °F 61% 30.20 in 10.0 mi Variable 3.5 mph - N/A   Clear
11:53 PM 46.9 °F 39.0 °F 74% 30.21 in 10.0 mi Calm Calm - N/A   Clear